Regional Weather Roundup
Issued by NWS

Home | Current Version | Previous Version | Graphics & Text | Print | Product List | Glossary On
Versions: 1 2 3 4 5 6 7 8 9 10 11 12 13 14 15 16 17 18 19 20 21 22 23 24 25 26 27 28 29 30 31 32 33 34 35 36 37 38 39 40 41 42 43 44 45 46 47 48 49 50
000
ASUS43 KLOT 270602
RWRIL

ILLINOIS REGIONAL WEATHER ROUNDUP
NATIONAL WEATHER SERVICE CHICAGO/ROMEOVILLE IL
100 AM CDT FRI MAR 27 2015

NOTE: "FAIR" INDICATES FEW OR NO CLOUDS BELOW 12,000 FEET WITH NO
SIGNIFICANT WEATHER AND/OR OBSTRUCTIONS TO VISIBILITY.

* THESE STATIONS ARE NOT UNDER NWS QUALITY CONTROL. THEY ALSO MAY NOT
  REPORT WEATHER SUCH AS PRECIPITATION OR FOG.

ILZ001-002-007-009-015-016-024-270700-
NORTHWEST ILLINOIS

CITY           SKY/WX    TMP DP  RH WIND       PRES   REMARKS
MOLINE         CLOUDY    31  21  66 NW12      30.12F WCI  22
6HR MIN TEMP:  30; 6HR MAX TEMP:  38;

STERLING*      CLOUDY    34  19  55 N9        30.11S WCI  26
$$

ILZ003-004-008-010-011-017-018-270700-
NORTH CENTRAL ILLINOIS

CITY           SKY/WX    TMP DP  RH WIND       PRES   REMARKS
ROCKFORD       FLURRIES  31  18  58 N10       30.12S WCI  22
6HR MIN TEMP:  31; 6HR MAX TEMP:  36; 6HR PCP: TRACE;

$$

ILZ005-006-012>014-019>023-270700-
NORTHEAST ILLINOIS

CITY           SKY/WX    TMP DP  RH WIND       PRES   REMARKS
CHICAGO-OHARE  MOCLDY    31  16  54 N9        30.07S WCI  23
6HR MIN TEMP:  31; 6HR MAX TEMP:  37;

CHICAGO-MIDWAY CLOUDY    34  16  47 N14G24    30.07S WCI  25
6HR MIN TEMP:  34; 6HR MAX TEMP:  40; 6HR PCP: TRACE;

AURORA         CLOUDY    32  17  54 N13       30.08S WCI  22
6HR MIN TEMP:  32; 6HR MAX TEMP:  37;

WAUKEGAN       LGT SNOW  28  25  88 N9        30.08S FOG     WCI  19
6HR MIN TEMP:  28; 6HR MAX TEMP:  35; 6HR PCP: TRACE;

DUPAGE AIRPORT CLOUDY    31  16  54 N9        30.07S WCI  23
6HR MIN TEMP:  31; 6HR MAX TEMP:  37;

WHEELING       CLOUDY    31  17  56 N9        30.09F WCI  23
6HR MIN TEMP:  31; 6HR MAX TEMP:  36;

NORTHERLY ISL    N/A     32  25  76 MISG        N/A
$$

LMZ740>746-270700-
SOUTHERN LAKE MICHIGAN

STATION/POSITION SKY/WX   TEMP    WIND        PRES    VSBY  WAVE
                          AIR SEA DIR/SP/G                  HT/PER
                          (F)     (DEG/KT/KT) (MB)    (MI)  (FT/S)
HARRISON CRIB              33     340/ 21/ 25   N/A
BURNHAM HARBOR             34     320/ 12/ 18   N/A
CALUMET HARBOR             33     330/ 12/ 17 1016.9F
BURNS HARBOR               33     360/ 15/ 21 1018.3S
MICHIGAN CITY              32     320/ 19/ 21   N/A
$$

ILZ025>027-034>036-040-047-049-050-058-095>099-270700-
WEST-CENTRAL ILLINOIS

CITY           SKY/WX    TMP DP  RH WIND       PRES   REMARKS
QUINCY         CLOUDY    34  25  69 N14       30.12R WCI  25
GALESBURG*     FAIR      28  23  79 NW7       30.12S WCI  21
$$

ILZ028>032-037-038-041>044-048-051>054-059>061-270700-
CENTRAL ILLINOIS

CITY           SKY/WX    TMP DP  RH WIND       PRES   REMARKS
DECATUR        PTCLDY    34  27  75 N10       30.05S WCI  26
PEORIA         PTCLDY    32  23  69 NW5       30.10F WCI  27
6HR MIN TEMP:  32; 6HR MAX TEMP:  46;

SPRINGFIELD    MOCLDY    35  26  69 N13       30.08F WCI  26
6HR MIN TEMP:  35; 6HR MAX TEMP:  47;

TAYLORVILLE    NOT AVBL
$$

ILZ033-039-045-046-055>057-062-063-270700-
EAST-CENTRAL ILLINOIS

CITY           SKY/WX    TMP DP  RH WIND       PRES   REMARKS
CHAMPAIGN      CLEAR     33  25  72 N16       30.02F WCI  23
MATTOON        CLEAR     32  27  81 N9        30.01S WCI  24
$$

ILZ079-100>102-270700-
SOUTHWEST ILLINOIS

CITY           SKY/WX    TMP DP  RH WIND       PRES   REMARKS
BELLEVILLE     PTCLDY    38  29  70 NW7       30.03F WCI  33
CAHOKIA*       PTCLDY    36  32  85 CALM      30.04F
$$

ILZ064>066-069>071-074>076-080>082-084>086-088>090-092>094-270700-
SOUTH-CENTRAL ILLINOIS

CITY           SKY/WX    TMP DP  RH WIND       PRES   REMARKS
CARBONDALE     CLEAR     33  31  92 CALM      30.04F
6HR MIN TEMP:  32; 6HR MAX TEMP:  45;

MT. VERNON     CLEAR     30  25  80 CALM      30.04S
$$

ILZ067-068-072-073-078-083-087-091-270700-
SOUTHEAST ILLINOIS

CITY           SKY/WX    TMP DP  RH WIND       PRES   REMARKS
LAWRENCEVILLE  CLEAR     33  31  92 NW3       30.02F
$$

ABBREVIATIONS USED IN REMARKS
   TC - TEMPERATURE IN CELSIUS
  WCI - WIND CHILL INDEX
   HX - HEAT INDEX
  VSB - VISIBILITY
$$



USA.gov is the U.S. government's official web portal to all federal, state and local government web resources and services.